« Back
NWS Peachtree City, Ga » Text Product » MCN Terminal Aerodrome Forecast


Printer-friendly Version
Current Version              Previous Versions:   1  2  3  4  5  6  7  8  9  

Terminal Aerodrome Forecast

814
FTUS42 KFFC 291124
TAFMCN
TAF
KMCN 291124Z 2912/3012 25005KT P6SM FEW080
     FM291400 26007KT P6SM SCT035
     FM291800 27010KT P6SM SCT050
     FM300100 26004KT P6SM SCT070=

USA.gov is the U.S. government's official web portal to all federal, state and local government web resources and services.